Location: ??????
(42.0089°N, 44.3281°E)
Time: 18:46:49
(UTC+00:00)

Okean 1-7 Rocket - Pass Details

Date: 03 June 2022
Orbit: 616 x 648 km, 82.5° (Epoch: 29 June)

Event Time Altitude Azimuth Distance (km) Brightness Sun altitude
Exits shadow 23:33:38 21° 172° (S) 1,402 5.0 -16.6°
Maximum altitude 23:36:29 65° 95° (E) 680 3.8 -16.2°
Drops below altitude 10° 23:40:50 10° 14° (NNE) 1,987 7.2 -15.7°
Sets 23:43:05 0° 11° (NNE) 2,897 8.2 -15.5°
